Tracking 29892 objects as of 21-Nov-2024
HD Live streaming from Space Station
objects crossing your sky now

STARLINK-30153

Track STARLINK-30153 now!
10-day predictions
STARLINK-30153 is classified as:


NORAD ID: 57510
Int'l Code: 2023-113R
Perigee: 565.1 km
Apogee: 567.2 km
Inclination: 43.0 °
Period: 95.8 minutes
Semi major axis: 6937 km
RCS: Unknown
Launch date: August 7, 2023
Source: United States (US)
Launch site: AIR FORCE EASTERN TEST RANGE (AFETR)
Your satellite tracking list
Your tracking list is empty




NASA's NSSDC Master Catalog

Two Line Element Set (TLE):
1 57510U 23113R   24325.34824319  .00004535  00000-0  35042-3 0  9992
2 57510  43.0014  75.0665 0001538 265.1208  94.9459 15.02548505 72196
Source of the keplerian elements: AFSPC